Location: Stillwell
(40.4602°N, 82.0928°W)
Time: 12:40:41
(UTC-04:00)

DMSP B5D2-2 - Pass Details

Date: 25 May 2018
Orbit: 791 x 806 km, 98.4° (Epoch: 15 October)

Event Time Altitude Azimuth Distance (km) Brightness Sun altitude
Rises 22:32:47 0° 16° (NNE) 3,329 7.8 -16.5°
Reaches altitude 10° 22:35:09 10° 20° (NNE) 2,393 6.9 -16.8°
Maximum altitude 22:40:24 63° 101° (E) 898 4.1 -17.5°
Enters shadow 22:43:30 24° 176° (S) 1,590 5.2 -17.8°
